Theta_e
352 356 363 363 364 365 366 365 365 363 361 359 358 359 360 362 363 363 363 363 363 362 361 359 358 358 357 355 355 358 359 359 358 357 356 355 354 352 351 350 351 343 350
354 355 362 363 364 364 362 364 364 363 362 361 361 360 360 362 363 363 363 362 362 360 359 359 359 357 356 354 354 355 355 355 355 355 356 355 355 353 353 351 349 347 350
355 355 356 362 363 364 363 365 364 363 363 363 363 361 360 361 361 362 362 361 360 358 357 356 355 354 353 352 352 353 353 352 353 354 355 355 355 357 356 354 350 348 348
356 356 353 362 363 363 362 365 365 364 364 364 363 362 360 361 360 360 360 359 358 356 355 354 353 351 349 348 347 348 350 352 355 356 350 351 355 360 359 357 353 350 349
356 359 358 362 362 362 362 363 364 364 364 363 362 361 360 360 360 360 360 358 357 357 357 355 354 352 350 349 347 347 349 351 353 348 344 348 353 359 361 358 356 355 354
353 359 361 362 361 361 361 362 362 362 363 363 361 360 359 359 359 359 359 359 357 357 356 353 352 351 350 348 348 349 351 353 353 341 338 349 345 359 359 357 354 356 357
355 357 356 362 361 360 359 360 360 361 362 361 359 359 358 358 358 358 358 358 357 355 354 353 351 348 347 348 350 352 352 353 345 337 337 342 343 352 350 347 350 351 353
353 352 355 361 361 360 359 359 359 360 359 359 359 358 357 357 356 357 356 356 355 356 355 352 350 350 353 353 353 354 355 354 348 341 341 341 348 353 353 352 353 355 355
349 352 353 354 357 359 359 359 359 360 359 359 358 358 357 355 355 355 356 357 358 356 354 353 353 354 355 355 355 355 355 356 350 345 344 350 357 359 356 356 356 358 359
348 347 350 354 352 352 353 358 358 358 359 359 358 358 357 357 357 358 358 358 359 357 355 356 356 356 356 355 355 355 357 357 352 349 351 351 357 357 355 354 354 356 358
339 346 349 350 354 352 352 354 356 356 356 357 356 358 356 352 354 354 355 356 359 358 358 357 357 357 357 356 355 356 357 352 349 345 346 352 351 350 350 349 351 352 354
338 339 347 347 347 352 355 352 354 352 352 353 353 354 352 352 354 353 358 358 359 358 357 357 357 357 357 346 347 354 351 348 345 336 340 347 347 346 346 347 348 350 352
337 339 340 349 345 347 351 357 353 352 352 354 357 357 358 361 358 353 351 352 354 354 348 349 349 349 348 349 351 348 346 348 330 333 339 343 345 343 342 342 344 346 347
335 336 341 351 352 344 346 349 354 345 351 354 355 359 361 360 358 358 353 355 352 350 349 352 350 352 346 343 337 332 328 327 328 327 335 339 338 339 337 339 341 341 344
333 338 347 351 346 358 357 352 354 354 351 358 358 359 360 360 358 357 355 354 356 359 356 354 352 351 342 339 334 334 331 325 325 325 326 338 333 336 334 332 335 338 339
336 333 341 350 355 356 357 355 354 354 356 354 361 361 360 360 358 357 355 356 354 357 358 356 352 351 350 345 340 334 330 328 328 329 325 332 338 338 338 335 333 335 336
339 336 336 350 358 360 356 336 332 333 333 353 354 360 362 361 360 358 356 352 352 356 356 356 354 352 348 346 341 335 330 329 327 326 328 325 329 341 340 340 336 334 334
339 342 344 348 345 334 331 336 338 332 329 341 347 353 353 354 358 353 352 351 354 354 353 353 350 347 345 340 336 333 331 329 328 326 326 327 328 330 338 341 339 337 335
329 332 335 338 344 344 336 339 338 332 335 341 346 349 351 353 352 352 351 353 354 351 349 349 348 345 342 340 336 333 332 332 329 327 326 326 328 329 330 338 340 340 340
327 328 329 329 330 338 345 349 343 330 334 345 345 348 351 349 350 351 350 351 351 349 347 346 345 345 342 340 336 333 334 332 329 328 329 329 330 330 332 330 332 333 341
323 324 325 324 326 327 328 331 339 342 342 335 341 340 340 342 346 347 346 345 345 346 346 343 341 339 338 338 331 325 326 331 329 331 332 330 329 329 328 330 332 329 333
321 322 322 321 323 323 326 325 332 335 345 335 334 338 334 338 341 340 341 340 342 341 342 343 340 335 333 334 328 325 320 323 328 326 327 327 327 327 327 330 328 329 329
318 320 322 322 322 322 322 322 323 324 324 322 324 326 326 327 329 339 339 341 340 338 336 338 338 336 329 332 333 327 319 315 320 325 328 327 326 330 328 328 329 329 329
316 319 320 321 319 319 320 317 318 316 315 318 319 322 321 324 328 325 328 331 332 330 329 330 333 332 330 326 329 329 329 326 317 315 322 325 326 322 319 322 322 321 320
317 318 319 321 320 319 319 318 315 315 314 315 317 316 318 320 320 321 322 321 321 323 323 324 325 326 329 327 326 325 326 325 325 318 313 318 322 322 318 318 317 320 320
315 315 317 317 317 317 317 316 316 314 313 313 312 312 311 313 314 317 313 316 316 317 318 319 320 322 323 325 326 324 322 321 321 318 315 314 311 314 316 317 318 319 318
Wind_Speed
15 14 16 15 14 11 11 12 13 13 11 10 11 11 10 10 11 11 10 9 9 9 9 8 7 7 8 8 8 8 8 8 7 6 7 6 6 6 7 6 7 10 9
20 15 14 14 15 13 12 12 13 13 12 10 10 11 10 10 10 10 9 8 8 8 8 7 6 6 6 6 6 5 5 4 2 2 3 4 3 2 5 7 10 8 7
19 14 13 12 13 13 12 12 14 13 12 11 11 10 10 9 10 10 8 8 8 8 7 6 6 5 4 4 4 3 2 1 3 3 3 6 6 8 5 6 6 6 5
17 12 12 13 13 13 11 11 13 13 13 12 11 10 10 9 9 9 8 8 8 7 7 6 5 4 3 2 1 1 2 4 6 6 6 7 5 10 7 6 5 4 4
15 14 13 13 12 12 11 10 11 12 12 12 11 10 9 9 9 8 7 7 7 6 6 4 4 3 2 1 2 3 4 6 8 10 9 6 6 11 9 7 6 5 5
16 16 14 13 12 11 12 11 10 10 11 10 11 10 8 7 6 7 6 5 5 4 3 3 2 1 1 2 4 5 6 8 9 10 10 5 4 12 9 6 1 2 2
20 15 14 13 12 12 10 10 9 9 9 10 9 9 9 8 7 6 5 5 4 3 3 2 2 1 2 4 5 6 7 9 8 10 11 5 10 12 9 5 2 4 6
18 16 14 14 13 12 11 10 10 9 9 9 8 8 8 7 6 6 5 4 3 3 2 2 2 3 4 5 7 8 9 10 10 10 11 7 12 11 8 4 1 5 6
19 15 12 11 11 11 11 10 9 9 9 10 9 8 8 8 7 6 5 5 5 4 3 4 4 5 6 7 9 10 11 14 9 8 11 5 7 10 9 5 3 5 7
18 16 13 11 9 10 9 10 9 9 8 9 9 9 7 9 10 10 9 9 9 7 6 7 7 8 9 10 12 12 13 16 9 7 4 3 7 9 9 9 7 7 7
21 8 16 13 11 12 12 9 8 7 5 6 7 9 9 7 11 11 11 10 14 12 10 10 10 11 11 12 14 14 15 6 10 5 3 9 7 9 10 9 6 7 7
22 21 14 13 10 7 9 9 7 6 6 7 8 8 8 9 7 5 8 15 15 14 14 13 15 11 9 7 5 13 5 5 5 5 4 9 7 11 11 8 6 6 7
16 19 24 10 8 8 5 3 2 3 4 7 11 10 7 1 3 4 4 6 6 11 5 8 6 6 3 5 4 8 15 3 2 3 7 8 8 11 8 5 4 5 6
11 11 19 17 8 2 1 3 4 3 1 13 7 7 3 4 4 2 1 4 5 5 6 3 3 9 5 4 4 3 4 3 2 3 5 7 9 7 3 4 5 6 7
7 6 5 7 12 4 5 4 5 1 2 1 7 6 1 3 4 2 3 4 3 1 2 2 2 5 4 3 5 1 1 2 2 2 2 5 7 3 6 3 3 6 6
10 12 14 15 9 1 3 8 10 10 7 6 1 5 4 2 3 3 3 5 0 2 2 3 4 2 3 3 5 5 5 4 1 2 2 3 8 12 11 10 6 6 6
12 8 7 11 3 2 5 13 10 10 22 7 4 7 2 3 2 2 5 4 3 1 2 4 3 3 2 4 6 3 2 2 2 2 5 4 6 13 13 11 10 10 9
13 10 12 11 12 13 11 7 5 11 19 21 24 13 5 4 1 4 4 4 5 4 4 4 4 3 2 3 4 3 3 3 5 6 5 5 5 5 10 12 11 11 10
14 14 13 13 10 4 4 4 9 13 10 13 11 7 5 9 10 5 4 4 2 3 3 3 1 2 3 2 4 5 6 5 6 8 8 8 9 5 6 14 14 12 13
13 13 12 12 14 11 6 4 5 8 8 6 5 5 9 9 9 6 6 5 3 3 4 3 3 1 3 3 6 5 7 7 7 8 8 10 7 6 6 8 9 8 17
13 13 14 13 13 11 11 7 5 4 4 3 3 8 9 9 11 8 6 7 7 5 3 4 3 4 3 4 3 4 6 7 9 8 6 4 5 7 7 6 4 4 2
13 13 15 14 15 11 6 6 3 5 1 5 5 6 8 9 6 6 6 7 8 7 7 4 3 3 3 4 4 3 4 7 6 11 7 5 9 8 7 7 7 6 3
11 12 12 11 12 12 13 8 8 6 8 9 8 6 8 12 12 7 8 5 5 6 7 8 5 6 6 5 7 5 4 5 7 3 4 6 4 5 3 6 7 5 5
10 10 9 10 10 11 13 12 13 10 9 8 9 9 10 11 10 12 11 11 9 7 9 10 10 8 7 7 7 8 10 7 8 9 8 7 7 14 16 15 13 14 16
10 10 10 10 11 13 13 12 9 9 7 8 7 11 9 10 12 12 12 11 10 8 7 7 9 9 7 6 6 6 9 8 6 3 4 6 2 4 4 8 10 6 10
11 11 9 12 12 11 10 10 10 10 11 9 11 10 11 10 10 10 15 13 14 13 11 8 8 7 8 8 8 7 6 4 7 5 3 3 3 5 4 1 2 4 5
Wind_Direction
117 124 117 117 111 106 115 126 127 125 122 122 125 122 119 111 110 99 93 85 88 92 94 93 94 82 74 69 69 70 72 74 77 80 80 82 85 94 84 65 349 104 98
121 121 117 118 116 113 122 126 123 125 129 132 131 129 125 120 116 109 104 89 84 86 88 90 86 76 73 76 77 82 87 91 98 102 116 163 143 145 106 74 55 93 96
115 122 121 113 113 116 125 124 124 125 131 131 131 129 128 125 123 118 108 94 91 87 87 86 85 82 78 77 75 67 66 13 299 295 274 268 178 176 162 111 88 98 104
118 133 123 116 116 118 126 123 125 128 130 129 129 136 136 133 130 130 123 108 99 99 93 87 83 82 75 64 53 21 335 310 295 298 269 237 217 164 184 149 145 150 162
123 113 118 114 115 119 120 120 120 123 128 131 133 135 136 137 138 139 131 123 117 113 108 96 88 73 56 10 325 310 301 294 295 292 263 246 179 165 169 165 176 191 207
132 111 117 115 117 121 127 127 125 132 133 135 136 135 134 135 141 147 145 141 136 133 119 112 101 60 326 308 298 292 291 289 292 280 272 201 149 153 158 171 207 301 205
110 120 123 121 122 124 125 126 129 131 130 133 136 138 143 147 156 161 159 157 156 161 158 165 172 219 263 273 274 279 281 281 280 277 274 203 130 147 152 151 197 253 263
118 129 137 130 130 129 127 129 131 132 134 134 138 143 147 153 162 170 172 182 189 188 203 232 244 253 264 273 275 271 270 271 276 271 270 88 131 140 127 113 263 274 273
120 121 129 130 123 118 123 133 139 140 144 144 146 150 156 161 171 182 197 205 208 211 225 239 250 261 267 267 268 264 263 263 261 280 302 87 113 111 101 79 329 292 279
129 131 137 128 147 152 147 141 148 153 158 153 159 158 173 179 188 192 192 206 209 215 227 236 245 246 251 255 258 262 266 271 264 254 62 70 98 85 79 57 19 357 338
16 120 133 142 174 166 134 145 150 155 170 176 177 183 184 215 192 200 206 219 198 203 215 230 241 246 249 254 258 253 260 268 273 109 94 109 100 81 64 50 17 355 348
19 21 9 37 8 89 116 157 167 161 188 204 205 192 218 224 156 164 175 185 195 204 213 218 230 241 263 270 309 227 264 287 357 98 82 95 82 65 52 35 11 357 357
3 13 355 20 18 40 35 135 333 34 344 222 206 199 219 226 196 213 176 183 206 213 225 216 226 233 327 37 44 38 291 304 104 143 109 96 84 63 48 24 4 355 352
18 358 331 332 314 165 188 92 68 89 348 253 207 196 207 216 201 240 358 178 201 157 207 99 105 47 356 55 24 273 75 293 35 56 109 87 69 73 38 348 346 345 333
142 192 216 189 267 315 289 191 153 255 236 219 178 180 249 353 68 17 22 329 308 94 15 11 166 145 179 179 226 121 39 250 327 25 74 139 112 189 200 210 298 309 306
170 152 206 196 200 74 330 348 5 334 310 301 182 118 126 332 23 348 243 226 176 21 357 21 344 330 134 203 229 208 208 216 233 24 261 141 188 205 209 197 176 245 275
222 228 229 229 167 151 54 53 53 12 8 270 123 87 329 84 357 258 293 320 316 68 122 241 240 176 179 219 239 212 248 292 299 264 258 209 225 223 212 198 202 212 233
39 45 25 31 58 67 81 55 46 33 20 341 334 29 16 294 33 326 325 15 13 358 346 335 326 15 360 11 333 330 304 224 245 238 240 239 232 211 212 217 208 221 228
33 29 35 28 26 29 96 108 88 62 69 300 290 347 338 360 15 8 335 334 21 319 291 280 237 185 276 228 257 235 240 241 229 239 231 238 239 231 182 201 213 226 229
45 40 42 36 19 9 28 122 88 112 173 226 308 2 8 12 10 358 331 350 339 336 313 345 336 1 257 272 275 275 227 238 235 235 238 226 206 216 214 201 195 224 232
44 44 35 34 32 26 16 17 29 357 56 24 341 27 10 356 7 350 358 350 345 332 327 326 337 325 293 279 266 293 278 228 235 234 229 228 213 218 225 214 202 223 204
43 33 27 22 34 28 25 10 11 17 39 57 347 75 359 350 18 357 358 351 360 334 325 324 318 286 278 292 258 246 288 290 261 233 233 229 233 227 211 226 235 207 195
54 40 36 29 24 23 8 5 11 19 21 19 348 4 3 350 339 347 333 324 347 348 330 339 329 317 307 299 291 255 294 254 267 278 211 247 258 250 215 235 246 226 234
71 76 54 47 38 26 21 20 18 12 4 354 354 356 343 322 354 357 356 10 16 0 4 356 357 340 323 305 312 304 319 313 299 310 318 319 350 27 28 16 351 34 14
51 52 48 37 36 28 26 25 13 10 359 343 340 339 313 358 349 350 2 358 349 343 339 350 345 342 325 306 300 294 310 308 297 252 208 247 356 97 65 64 337 355 20
43 37 45 29 32 23 19 16 12 8 351 347 349 349 356 348 347 351 5 355 352 345 336 327 323 322 320 321 312 298 284 304 299 299 292 23 7 330 341 147 20 343 336